GSAT0220 (GALILEO 24)

Last updated on Wed Nov 20 2024 00:02:29 GMT+0000 (Coordinated Universal Time)

1 43567U 18060D 24324.28609106 -.00000094 00000+0 00000+0 0 9999 2 43567 57.2984 357.2953 0005633 273.7700 86.2174 1.70475801 39372
UTC large
Height (km)
Speed (km/s)
/
Latitude / Longitude
Inclination (degrees)
Orbital Period (minutes)
Azimuth
Elevation
Range (km)
Doppler Factor

Next 0 passes for location: London (51.5072 / 0.1276)

Sorry there are no passes over London.